Location: Asheville, NC
(35.6000°N, 82.5500°W)
Time: 19:47:34
(UTC-04:00)

Vanguard 2 - Pass Details

Date: 13 March 2018
Orbit: 553 x 2939 km, 32.9° (Epoch: 23 June)

Event Time Altitude Azimuth Distance (km) Brightness Sun altitude
Rises 18:29:44 0° 284° (WNW) 6,786 13.6 12.5°
Reaches altitude 10° 18:34:51 10° 278° (W) 5,682 13.6 11.5°
Maximum altitude 18:49:27 38° 219° (SW) 3,242 11.4 8.6°
Drops below altitude 10° 18:59:59 10° 156° (SSE) 4,103 11.1 6.5°
Sets 19:03:04 0° 148° (SSE) 4,784 11.3 5.9°
